Location: Baia de Cri?
(46.1667°N, 22.7167°E)
Time: 22:29:33
(UTC+00:00)

Cosmos 1862 Rocket - Pass Details

Date: 15 January 2026
Orbit: 596 x 627 km, 82.5° (Epoch: 13 February)

Event Time Altitude Azimuth Distance (km) Brightness Sun altitude
Rises 05:15:09 0° 345° (NNW) 2,882 6.6 -9.0°
Reaches altitude 10° 05:17:26 10° 340° (NNW) 1,968 5.8 -8.7°
Maximum altitude 05:21:37 49° 266° (W) 788 3.8 -8.0°
Drops below altitude 10° 05:25:45 10° 192° (SSW) 1,936 6.3 -7.3°
Sets 05:27:59 0° 187° (S) 2,830 7.2 -7.0°
